[[{"header":{"parameterUnit":"m.s-1","parameterCategory":1,"la1":30.2991,"la2":30.254,"lo1":-89.0895,"lo2":-89.0444,"dy":0.0017,"dx":0.0017,"nx":28,"ny":28,"refTime":"2025-11-04T09:00:00:Z","depth":0,"parameterNumber":2,"parameterNumberName":"U-component_of_WINDS"},"data":[0,0,0,0,0,0,0,0,0,0,0,0,0,0,0,0,0,0,0,0,0,0,0,0,0,0,0,0,0,0,0,0,0,0,0,0,0,0,0,0,0,0,0,0,0,0,0,0,0,0,0,0,0,0,0,0,0,0,-3.0639,-3.064,0,-3.0708,-3.0709,-3.071,-3.0647,-3.0644,-3.0642,-3.0639,-3.0709,-3.0713,-3.0717,0,0,0,0,0,0,0,0,0,0,0,0,0,-3.0452,-3.0456,-3.0639,-3.064,-3.0641,-3.0708,-3.0709,-3.071,-3.0647,-3.0644,-3.0641,-3.0638,-3.0707,-3.0712,-3.0717,0,0,0,0,0,0,0,0,0,0,0,0,0,-3.0528,-3.0457,-3.0639,-3.0618,-3.0616,-3.0708,-3.0709,-3.071,-3.0648,-3.0644,-3.064,-3.0637,-3.0706,-3.0712,-3.0718,-3.0834,0,0,-3.0738,-3.074,0,0,0,0,0,0,0,0,-3.0524,-3.0535,-3.062,-3.0619,-3.0618,-3.0665,-3.0668,-3.0752,-3.0649,-3.0636,-3.0639,-3.0635,-3.0697,-3.0704,-3.0725,-3.0837,-3.084,-3.0738,-3.0742,-3.0745,-3.0746,0,0,0,0,0,0,0,-3.0519,-3.0532,-3.0666,-3.0621,-3.062,-3.0604,-3.0611,-3.0684,-3.0687,-3.0637,-3.0632,-3.0641,-3.0696,-3.0719,-3.0726,-3.0841,-3.0738,-3.0744,-3.0748,-3.075,-3.105,-3.1054,0,0,0,0,0,0,-3.0516,-3.0528,-3.0664,-3.0668,-3.0561,-3.0611,-3.0618,-3.0654,-3.0686,-3.0687,-3.0645,-3.0638,-3.071,-3.0719,-3.0729,-3.0865,-3.0745,-3.0751,-3.0754,-3.1046,-3.1051,-3.1055,0,0,0,0,0,0,-3.0512,-3.0529,-3.0661,-3.0597,-3.0613,-3.0618,-3.0658,-3.0657,-3.068,-3.0692,-3.0692,-3.0668,-3.0708,-3.072,-3.0808,-3.0866,-3.0753,-3.0759,-3.1041,-3.1047,-3.1053,-3.1139,0,0,0,0,0,0,-3.0507,-3.0528,-3.0572,-3.0599,-3.0616,-3.074,-3.0662,-3.0661,-3.0692,-3.0684,-3.0714,-3.0715,-3.0706,-3.0799,-3.0814,-3.0873,-3.0764,-3.1036,-3.1044,-3.1051,-3.1131,-3.1147,-3.1161,0,0,0,0,0,-3.0501,-3.0593,-3.0575,-3.0591,-3.0672,-3.0744,-3.0754,-3.0741,-3.0697,-3.0741,-3.0748,-3.0714,-3.0858,-3.0808,-3.0825,-3.0887,-3.1032,-3.1042,-3.1051,-3.1124,-3.1144,-3.1161,0,0,0,0,0,0,-3.0573,-3.0596,-3.0576,-3.068,-3.071,-3.0733,-3.0788,-3.0763,-3.0806,-3.0797,-3.0779,-3.0786,-3.0879,-3.0892,-3.0836,-3.1,-3.0938,-3.0951,-3.0988,-3.1007,-3.1022,-3.1016,-3.0769,0,0,0,0,0,-3.0602,-3.0658,-3.0675,-3.0766,-3.0782,-3.0783,-3.0813,-3.0801,-3.0831,-3.0844,-3.0858,-3.0888,-3.094,-3.0975,-3.1023,-3.1133,-3.1138,-3.1184,-3.1199,-3.1212,-3.1222,-3.128,-3.13,-3.1086,-3.1086,-3.1086,0,0,-3.066,-3.068,-3.0717,-3.0781,-3.0803,-3.0861,-3.0794,-3.0859,-3.0901,-3.0854,-3.0937,-3.0949,-3.0982,-3.1081,-3.1125,-3.1095,-3.1283,-3.1224,-3.1233,-3.1237,-3.1292,-3.1312,-3.133,-3.1093,-3.1091,-3.109,0,0,-3.0796,-3.0818,-3.0894,-3.0918,-3.0952,-3.0952,-3.0971,-3.0997,-3.1003,-3.1087,-3.1052,-3.1103,-3.1193,-3.1217,-3.1242,-3.1388,-3.1358,-3.1404,-3.1483,-3.154,-3.1556,-3.1571,-3.1621,-3.164,-3.1416,-3.1416,-3.1416,0,-3.0864,-3.0951,-3.0937,-3.1004,-3.1033,-3.0993,-3.107,-3.1094,-3.1142,-3.1162,-3.1128,-3.1239,-3.1259,-3.1363,-3.1398,-3.142,-3.144,-3.14,-3.1555,-3.157,-3.1584,-3.1631,-3.165,-3.1421,-3.1421,-3.142,-3.142,0,-3.1032,-3.1093,-3.1151,-3.1198,-3.1234,-3.1306,-3.1302,-3.134,-3.1325,-3.1329,-3.1414,-3.1437,-3.1488,-3.1512,-3.1499,-3.1614,-3.1594,-3.1558,-3.1494,-3.1609,-3.1654,-3.1672,-3.1429,-3.1427,-3.1425,-3.1424,0,0,-3.1214,-3.1253,-3.1275,-3.1295,-3.133,-3.1377,-3.1447,-3.1498,-3.153,-3.1565,-3.1622,-3.17,-3.1666,-3.1694,-3.1683,-3.1733,-3.1845,-3.169,-3.1691,-3.1716,-3.1972,-3.1997,-3.2018,-3.1826,-3.183,-3.1833,-3.1968,0,-3.1349,-3.1471,-3.146,-3.1575,-3.163,-3.1594,-3.1654,-3.1683,-3.1688,-3.1735,-3.1742,-3.1796,-3.1749,-3.1765,-3.1813,-3.1821,-3.1895,-3.1812,-3.1878,-3.188,-3.1868,-3.2042,-3.2069,-3.2195,-3.1986,-3.1989,-3.1991,0,-3.1523,-3.1564,-3.1684,-3.171,-3.1733,-3.1788,-3.1833,-3.188,-3.191,-3.1911,-3.1942,-3.1923,-3.1993,-3.193,-3.2025,-3.1968,-3.1995,-3.2003,-3.2008,-3.2012,-3.1941,-3.2048,-3.2236,-3.2254,-3.2018,-3.2016,-3.2014,0,-3.1641,-3.1727,-3.1809,-3.1828,-3.1861,-3.19,-3.1916,-3.1943,-3.1974,-3.2014,-3.2034,-3.2082,-3.2108,-3.2145,-3.2138,-3.2094,-3.2235,-3.2172,-3.2236,-3.2237,-3.2266,-3.2263,-3.2458,-3.2288,-3.2287,-3.2287,-3.2286,0,-3.1792,-3.1866,-3.1862,-3.1913,-3.1995,-3.1982,-3.2064,-3.2075,-3.21,-3.2151,-3.2124,-3.2173,-3.2162,-3.2211,-3.2207,-3.2285,-3.2298,-3.2299,-3.2297,-3.23,-3.23,-3.2316,-3.2306,-3.2292,-3.2291,-3.229,-3.2289,0,-3.1936,-3.1937,-3.2024,-3.2048,-3.2056,-3.2115,-3.2136,-3.2183,-3.2187,-3.2253,-3.2268,-3.2273,-3.2329,-3.2327,-3.2391,-3.2388,-3.2484,-3.2473,-3.2474,-3.247,-3.2534,-3.2527,-3.2744,-3.2771,-3.2584,-3.2586,-3.2588,0,-3.2031,-3.2087,-3.2118,-3.215,-3.2169,-3.2222,-3.2253,-3.2244,-3.2277,-3.2317,-3.236,-3.2413,-3.2455,-3.2546,-3.2556,-3.2604,-3.2592,-3.2665,-3.2599,-3.2601,-3.2591,-3.2586,-3.2591,-3.2677,-3.2679,-3.2681,-3.2682,0,-3.2199,-3.2196,-3.2243,-3.229,-3.2328,-3.2364,-3.2398,-3.2426,-3.242,-3.246,-3.2516,-3.2549,-3.2614,-3.2667,-3.2714,-3.2729,-3.2705,-3.2703,-3.272,-3.2723,-3.272,-3.2721,-3.2506,-3.2698,-3.2696,-3.2695,-3.2694,-3.2693,-3.232,-3.2368,-3.2396,-3.2449,-3.2473,-3.2505,-3.255,-3.256,-3.2607,-3.2659,-3.2651,-3.2714,-3.2744,-3.2803,-3.2824,-3.2873,-3.2847,-3.2872,-3.2878,-3.2884,-3.289,-3.2715,-3.2881,-3.2881,-3.2881,-3.288,-3.288,0,-3.2484,-3.2501,-3.255,-3.2597,-3.2638,-3.2613,-3.2648,-3.2684,-3.274,-3.277,-3.2812,-3.2877,-3.2928,-3.2943,-3.2992,-3.3028,-3.3018,-3.3041,-3.3037,-3.3041,-3.2911,-3.289,-3.3049,-3.3049,-3.3049,-3.3049,-3.3049,-3.3049,-3.2575,-3.2653,-3.2654,-3.2745,-3.2761,-3.2823,-3.2845,-3.2874,-3.2897,-3.2971,-3.3014,-3.3023,-3.3046,-3.3097,-3.3143,-3.3146,-3.3164,-3.3192,-3.319,-3.3067,-3.305,-3.3034,-3.3014,-3.3196,-3.3197,-3.3315,-3.3317,-3.3317]},{"header":{"parameterUnit":"m.s-1","parameterCategory":1,"la1":30.2991,"la2":30.254,"lo1":-89.0895,"lo2":-89.0444,"dy":0.0017,"dx":0.0017,"nx":28,"ny":28,"refTime":"2025-11-04T09:00:00:Z","depth":0,"parameterNumber":3,"parameterNumberName":"V-component_of_WINDS"},"data":[0,0,0,0,0,0,0,0,0,0,0,0,0,0,0,0,0,0,0,0,0,0,0,0,0,0,0,0,0,0,0,0,0,0,0,0,0,0,0,0,0,0,0,0,0,0,0,0,0,0,0,0,0,0,0,0,0,0,1.9405,1.9405,0,1.9403,1.9403,1.9403,1.9373,1.9372,1.9371,1.937,1.9368,1.9369,1.9369,0,0,0,0,0,0,0,0,0,0,0,0,0,1.9384,1.9385,1.9405,1.9405,1.9405,1.9403,1.9403,1.9403,1.9373,1.9372,1.9371,1.937,1.9368,1.9369,1.9369,0,0,0,0,0,0,0,0,0,0,0,0,0,1.9389,1.9385,1.9405,1.939,1.9389,1.9403,1.9403,1.9403,1.9373,1.9372,1.9371,1.937,1.9368,1.9369,1.9369,1.9398,0,0,1.9372,1.9373,0,0,0,0,0,0,0,0,1.9389,1.939,1.9392,1.9391,1.9389,1.9387,1.9394,1.9401,1.9373,1.9379,1.937,1.9369,1.9375,1.9375,1.9378,1.9398,1.9398,1.9373,1.9373,1.9374,1.9374,0,0,0,0,0,0,0,1.9388,1.939,1.9404,1.9392,1.9391,1.9383,1.9383,1.9396,1.9383,1.9378,1.9376,1.9376,1.9374,1.9377,1.9377,1.9398,1.9373,1.9373,1.9374,1.9374,1.9442,1.9443,0,0,0,0,0,0,1.939,1.939,1.9404,1.9404,1.9386,1.9385,1.9384,1.9389,1.9383,1.9381,1.9377,1.9375,1.9376,1.9376,1.9377,1.941,1.9374,1.9374,1.9375,1.9441,1.9442,1.9443,0,0,0,0,0,0,1.939,1.9392,1.9404,1.9396,1.9397,1.9386,1.9392,1.9389,1.9392,1.9382,1.938,1.9382,1.9375,1.9376,1.9393,1.9409,1.9375,1.9376,1.9439,1.9441,1.9443,1.9476,0,0,0,0,0,0,1.9389,1.9392,1.9403,1.9397,1.9398,1.942,1.9393,1.939,1.9393,1.939,1.9386,1.9384,1.9374,1.9392,1.9394,1.941,1.9377,1.9438,1.944,1.9442,1.9474,1.9479,1.9484,0,0,0,0,0,1.9389,1.9412,1.9403,1.9405,1.9411,1.9421,1.9422,1.9409,1.9395,1.9405,1.94,1.9384,1.9408,1.9394,1.9396,1.9413,1.9436,1.9439,1.9442,1.9471,1.9478,1.9483,0,0,0,0,0,0,1.942,1.9411,1.9401,1.9423,1.9423,1.9416,1.9429,1.9417,1.9421,1.9418,1.9402,1.9402,1.9421,1.9419,1.9404,1.944,1.9419,1.9423,1.9441,1.9447,1.9452,1.9452,1.9377,0,0,0,0,0,1.943,1.9439,1.9431,1.9451,1.9452,1.9441,1.9445,1.9435,1.9434,1.9434,1.943,1.943,1.9437,1.9442,1.9448,1.9473,1.9472,1.9486,1.9491,1.9495,1.9498,1.9511,1.9517,1.9452,1.9452,1.9452,0,0,1.945,1.9446,1.9453,1.9457,1.9456,1.9466,1.9441,1.9452,1.946,1.9436,1.9452,1.9449,1.9448,1.9469,1.9478,1.9468,1.9516,1.9499,1.9502,1.9503,1.9514,1.952,1.9526,1.9454,1.9454,1.9453,0,0,1.9491,1.9489,1.9506,1.9505,1.9504,1.9496,1.95,1.9495,1.9492,1.9508,1.949,1.9499,1.9512,1.9512,1.9513,1.9555,1.9541,1.9557,1.9583,1.9596,1.9601,1.9605,1.9619,1.9625,1.956,1.956,1.956,0,1.9516,1.953,1.9516,1.9529,1.9531,1.951,1.9527,1.9527,1.9528,1.953,1.9518,1.9534,1.9532,1.9553,1.9563,1.9565,1.9569,1.9557,1.9601,1.9605,1.9609,1.9623,1.9628,1.9562,1.9562,1.9562,1.9562,0,1.956,1.957,1.9584,1.9585,1.9589,1.9604,1.9592,1.9598,1.9588,1.9582,1.9598,1.9595,1.96,1.9605,1.9595,1.9624,1.9618,1.9604,1.9582,1.9618,1.963,1.9635,1.9565,1.9564,1.9564,1.9563,0,0,1.9621,1.9614,1.9619,1.9619,1.9616,1.9624,1.9638,1.9642,1.9648,1.9649,1.966,1.9671,1.9658,1.966,1.9651,1.9662,1.9695,1.9647,1.9646,1.9655,1.9726,1.9736,1.9742,1.9686,1.9687,1.9687,1.9726,0,1.966,1.9683,1.9671,1.9695,1.9704,1.9685,1.9697,1.9696,1.9691,1.9698,1.9692,1.97,1.9683,1.9684,1.9694,1.9688,1.9708,1.9686,1.9696,1.9696,1.9696,1.9749,1.976,1.9796,1.9731,1.9732,1.9732,0,1.9709,1.9712,1.9737,1.9732,1.9735,1.9746,1.975,1.9757,1.9756,1.9751,1.9753,1.9741,1.9754,1.9734,1.9752,1.9736,1.974,1.9738,1.9739,1.9739,1.9716,1.975,1.9808,1.9813,1.974,1.9739,1.9739,0,1.975,1.976,1.9777,1.9778,1.9772,1.978,1.9779,1.9777,1.978,1.9783,1.9785,1.979,1.9793,1.9797,1.9786,1.9772,1.9805,1.9784,1.9802,1.9802,1.9809,1.9809,1.9868,1.9813,1.9812,1.9812,1.9812,0,1.9794,1.9811,1.9795,1.9805,1.9823,1.9809,1.9827,1.9823,1.9821,1.983,1.9814,1.9823,1.9808,1.9816,1.9808,1.9824,1.9825,1.9822,1.9819,1.9823,1.9823,1.9824,1.9821,1.9814,1.9813,1.9813,1.9813,0,1.9843,1.9833,1.985,1.9844,1.9842,1.9856,1.985,1.9859,1.9853,1.9865,1.9867,1.9857,1.9865,1.9855,1.9862,1.9856,1.9878,1.9872,1.9878,1.9876,1.9894,1.9893,1.9956,1.9963,1.9904,1.9904,1.9905,0,1.9872,1.9884,1.9879,1.9884,1.9883,1.9891,1.9894,1.9881,1.9886,1.9885,1.9895,1.9901,1.9906,1.9919,1.9913,1.9918,1.9912,1.9934,1.9912,1.9916,1.9912,1.9911,1.9912,1.9938,1.9938,1.9939,1.994,0,1.9924,1.9919,1.9924,1.9928,1.9933,1.9936,1.9937,1.9942,1.9928,1.9934,1.9942,1.9945,1.9952,1.9959,1.9963,1.9961,1.9948,1.9946,1.9951,1.9954,1.9957,1.9955,1.9889,1.9945,1.9944,1.9944,1.9944,1.9943,1.9964,1.9973,1.9971,1.9978,1.9977,1.9979,1.9987,1.9982,1.9988,1.9992,1.9985,1.9994,1.9993,1.9997,1.9996,2.0004,1.9994,2.0001,2.0002,2.0004,2.0007,1.9956,2.0005,2.0004,2.0004,2.0004,2.0004,0,2.0015,2.0012,2.0019,2.0021,2.0026,2.0014,2.0014,2.002,2.0028,2.0028,2.0033,2.0042,2.0048,2.0042,2.0048,2.0055,2.0049,2.0056,2.0056,2.0055,2.0015,2.001,2.0061,2.0061,2.0061,2.0061,2.0061,2.0061,2.0042,2.0057,2.0052,2.0067,2.0064,2.0073,2.0075,2.0076,2.0076,2.0087,2.0092,2.0088,2.0085,2.009,2.0095,2.0093,2.0096,2.0106,2.0102,2.0064,2.0058,2.0053,2.0048,2.0106,2.0106,2.0141,2.0142,2.0142]}]]